TEMELIN Weather Reports


time (UTC)temp
F
wind
direction
speed
knots
gust
knots
rain 1hr
in
rain 24hr
in
rain mn
in
humidity
%
barometer
mb
20260506121835 70 160 7.8 0.0 0.00 0.00 0.00 40
20260506111820 68 220 4.3 0.0 0.00 0.00 0.00 49
20260506102031 66 190 4.3 0.0 0.00 0.00 0.00 55
20260506091820 63 0 4.3 0.0 0.00 0.00 0.00 59
20260506081818 59 200 4.3 0.0 0.00 0.00 0.00 67
20260506071821 59 220 4.3 0.0 0.00 0.00 0.00 77
20260506061821 55 230 1.7 0.0 0.00 0.00 0.00 87
20260506042030 52 260 4.3 0.0 0.00 0.00 0.00 93
20260506031822 52 240 4.3 0.0 0.00 0.00 0.00 93
20260506021820 52 220 1.7 0.0 0.00 0.00 0.00 93
20260506011920 54 240 4.3 0.0 0.00 0.00 0.00 93
20260506001818 54 250 6.1 0.0 0.00 0.00 0.00 93
20260505231818 55 10 4.3 0.0 0.00 0.00 0.00 93
20260505221816 57 290 12.2 0.0 0.00 0.00 0.00 87
20260505211851 57 290 13.9 0.0 0.00 0.00 0.00 82
20260505201835 64 270 6.1 0.0 0.00 0.00 0.00 59
20260505191852 64 40 4.3 0.0 0.00 0.00 0.00 59
20260505181835 68 60 7.8 0.0 0.00 0.00 0.00 52
20260505171818 70 100 4.3 0.0 0.00 0.00 0.00 43
20260505161917 72 110 7.8 0.0 0.00 0.00 0.00 43
20260505151818 68 120 13.9 0.0 0.00 0.00 0.00 52